Voltar ao catálogo

STARLINK-36396

AtivoComunicaçõesVLEO
NORAD 67494·PAYLOAD·🇺🇸 United States

Lançado Jan 18, 2026 de Cape Canaveral Space Force Station

Loading…

Próximas Passagens (próximas 24 horas)

TLE

AtualizadoSource: CelesTrak SupGP

Época: Sep 14, 2026, 23:05 UTC

1 67494C 26012B   26257.96229167 -.00003296  00000+0 -11939-3 0  2579
2 67494  43.0008 325.6338 0001512 272.0186 218.7746 15.27574373    12

Acompanhe STARLINK-36396 em tempo real com AllMySat

Download on the App Store